SCP
0 0 0 0 0 0 0 0 0 0 0 0 0 0 0 0 0 0 0 0 0 0 0 0 0 0 0 0 0 0 0 0 0 0 0 0 0 0 0 0 0 0 0
0 0 0 0 0 0 0 0 0 0 0 0 0 0 0 0 0 0 0 0 0 0 0 0 0 0 0 0 0 0 0 0 0 0 0 0 0 0 0 0 0 0 0
0 0 0 0 0 0 0 0 0 0 0 0 0 0 0 0 0 0 0 0 0 0 0 0 0 0 0 0 0 0 0 0 0 0 0 0 0 0 0 0 0 0 0
0 0 0 0 0 0 0 0 0 0 0 0 0 0 0 0 0 0 0 0 0 0 0 0 0 0 0 0 0 0 0 0 0 0 0 0 0 0 0 0 0 0 0
0 0 0 0 0 0 0 0 0 0 0 0 0 0 0 0 0 0 0 0 0 0 0 0 0 0 0 0 0 0 0 0 0 0 0 0 0 0 0 0 0 0 0
0 0 0 0 0 0 0 0 0 0 0 0 0 0 0 0 0 0 0 0 0 0 0 0 0 0 0 0 0 0 0 0 0 0 0 0 0 0 0 0 0 0 0
0 0 0 0 0 0 0 0 0 0 0 0 0 0 0 0 0 0 0 0 0 0 0 0 0 0 0 0 0 0 0 0 0 0 0 0 0 0 0 0 0 0 0
0 0 0 0 0 0 0 0 0 0 0 0 0 0 0 0 0 0 0 0 0 0 0 0 0 0 0 0 0 0 0 0 0 0 0 0 0 0 0 0 0 0 0
0 0 0 0 0 0 0 0 0 0 0 0 0 0 0 0 0 0 0 0 0 0 0 0 0 0 0 0 0 0 0 0 0 0 0 0 0 0 0 0 0 0 0
0 0 0 0 0 0 0 0 0 0 0 0 0 0 0 0 0 0 0 0 0 0 0 0 0 0 0 0 0 0 0 0 0 0 0 0 0 0 0 0 0 0 0
0 0 0 0 0 0 0 0 0 0 0 0 0 0 0 0 0 0 0 0 0 0 0 0 0 0 0 0 0 0 0 0 0 0 0 0 0 0 0 0 0 0 0
0 0 0 0 0 0 0 0 0 0 0 0 0 0 0 0 0 0 0 0 0 0 0 0 0 0 0 0 0 0 0 0 0 0 0 0 0 0 0 0 0 0 0
0 0 0 0 0 0 0 0 0 0 0 0 0 0 0 0 0 0 0 0 0 0 0 0 0 0 0 0 0 0 0 0 0 0 0 0 0 0 0 0 0 0 0
0 0 0 0 0 0 0 0 0 0 0 0 0 0 0 0 0 0 0 0 0 0 0 0 0 0 0 0 0 0 0 0 0 0 0 0 0 0 0 0 0 0 0
0 0 0 0 0 0 0 0 0 0 0 0 0 0 0 0 0 0 0 0 0 0 0 0 0 0 0 0 0 0 0 0 0 0 0 0 0 0 0 0 0 0 0
0 0 0 0 0 0 0 0 0 0 0 0 0 0 0 0 0 0 0 0 0 0 0 0 0 0 0 0 0 0 0 0 0 0 0 0 0 0 0 0 0 0 0
0 0 0 0 0 0 0 0 0 0 0 0 0 0 0 0 0 0 0 0 0 0 0 0 0 0 0 0 0 0 0 0 0 0 0 0 0 0 0 0 0 0 0
0 0 0 0 0 0 0 0 0 0 0 0 0 0 0 0 0 0 0 0 0 0 0 0 0 0 0 0 0 0 0 0 0 0 0 0 0 0 0 0 0 0 0
0 0 0 0 0 0 0 0 0 0 0 0 0 0 0 0 0 0 0 0 0 0 0 0 0 0 0 0 0 0 0 0 0 0 0 0 0 0 0 0 0 0 0
0 0 0 0 0 0 0 0 0 0 0 0 0 0 0 0 0 0 0 0 0 0 0 0 0 0 0 0 0 0 0 0 0 0 0 0 0 0 0 0 0 0 0
0 0 0 0 0 0 0 0 0 0 0 0 0 0 0 0 0 0 0 0 0 0 0 0 0 0 0 0 0 0 0 0 0 0 0 0 0 0 0 0 0 0 0
0 0 0 0 0 0 0 0 0 0 0 0 0 0 0 0 0 0 0 0 0 0 0 0 0 0 0 0 0 0 0 0 0 0 0 0 0 0 0 0 0 0 0
0 0 0 0 0 0 0 0 0 0 0 0 0 0 0 0 0 0 0 0 0 0 0 0 0 0 0 0 0 0 0 0 0 0 0 0 0 0 0 0 0 0 0
0 0 0 0 0 0 0 0 0 0 0 0 0 0 0 0 0 0 0 0 0 0 0 0 0 0 0 0 0 0 0 0 0 0 0 0 0 0 0 0 0 0 0
0 0 0 0 0 0 0 0 0 0 0 0 0 0 0 0 0 0 0 0 0 0 0 0 0 0 0 0 0 0 0 0 0 0 0 0 0 0 0 0 0 0 0
0 0 0 0 0 0 0 0 0 0 0 0 0 0 0 0 0 0 0 0 0 0 0 0 0 0 0 0 0 0 0 0 0 0 0 0 0 0 0 0 0 0 0
Wind_Speed
1 2 8 10 11 12 12 12 12 13 13 13 14 15 14 14 14 13 12 12 11 11 11 10 10 9 10 10 9 9 9 9 9 9 9 9 9 9 9 10 10 7 11
3 3 9 10 11 11 12 12 12 12 13 13 14 14 14 13 13 12 12 11 11 10 10 10 9 9 9 9 9 8 8 8 8 8 8 8 8 8 9 9 9 7 10
5 4 7 10 11 11 11 11 12 12 12 12 12 12 13 12 12 11 11 10 10 10 9 9 8 8 8 8 8 7 7 6 6 7 7 4 5 7 8 8 9 9 10
5 4 6 10 10 10 11 11 11 11 11 11 11 11 11 11 11 11 10 10 9 9 8 7 7 7 7 7 6 6 6 5 5 5 4 3 3 6 7 8 8 9 9
5 4 5 10 10 10 10 10 10 10 10 10 10 10 10 10 10 10 9 8 8 8 7 6 6 6 6 5 5 4 4 4 5 4 3 2 2 5 7 7 8 8 8
5 3 5 9 9 9 9 9 9 9 9 9 9 9 9 9 9 8 8 7 6 6 5 5 5 5 4 4 3 3 4 4 4 3 2 2 2 4 6 7 7 8 8
4 3 4 9 8 8 8 8 8 8 8 7 7 7 7 7 7 7 6 6 5 4 4 4 4 3 3 2 2 2 3 3 3 2 2 2 2 5 6 6 7 7 8
4 3 3 7 8 8 7 7 7 7 6 6 6 6 6 6 5 5 5 4 4 3 3 3 2 2 2 1 1 1 2 2 3 2 2 2 4 5 6 7 7 7 7
4 3 2 2 4 6 6 6 6 5 5 5 5 5 5 5 5 4 4 4 3 3 2 2 2 1 1 0 0 1 2 2 2 2 2 2 4 6 6 6 6 6 7
3 2 2 2 2 2 2 4 5 5 4 4 4 4 4 4 3 3 3 3 3 3 2 2 2 1 1 2 1 1 1 1 2 2 2 3 5 6 6 6 6 7 7
3 1 1 2 1 1 1 2 3 3 3 3 2 2 2 1 1 0 1 3 3 3 3 3 2 2 2 2 2 2 1 1 2 2 2 4 6 7 7 7 7 7 7
4 3 2 2 2 1 1 1 0 1 1 1 1 1 1 1 0 0 1 2 2 1 2 2 1 1 1 1 2 1 1 2 2 2 3 6 7 8 8 7 7 7 7
5 4 4 3 2 2 1 1 0 1 1 0 0 1 1 1 1 1 1 2 2 2 1 2 1 1 1 1 1 1 2 2 2 2 3 7 7 8 8 8 8 8 8
5 5 4 4 3 2 2 1 1 0 0 0 0 0 1 0 0 0 0 1 1 1 1 1 1 1 1 1 1 2 2 1 2 2 3 7 8 8 9 8 9 9 8
6 6 5 5 4 3 2 1 1 1 1 1 1 1 1 1 1 0 1 1 1 1 1 1 1 1 1 2 2 2 2 3 3 3 2 7 7 8 9 9 9 9 9
7 6 5 5 5 3 2 2 1 1 1 1 1 1 1 1 1 1 1 1 1 1 1 1 1 1 1 1 2 2 2 3 3 3 3 4 7 8 8 8 9 9 9
7 6 6 6 5 4 4 3 2 1 1 1 1 1 1 2 2 1 1 1 2 1 1 1 1 1 1 1 1 2 2 2 3 3 3 3 3 6 7 8 8 8 9
6 6 6 6 5 5 4 3 2 1 1 1 1 1 1 2 2 2 1 2 2 1 1 1 1 0 1 1 1 2 1 2 3 3 3 3 3 3 5 7 8 8 9
7 7 6 5 5 5 4 3 2 1 1 1 1 1 2 2 2 2 2 2 1 1 1 1 0 1 1 1 1 2 1 1 2 2 3 3 3 3 3 4 6 7 9
7 6 6 5 5 4 3 2 1 1 1 1 1 2 2 2 2 2 2 2 1 1 1 0 1 0 1 1 1 2 2 2 1 2 2 2 3 3 3 3 3 4 8
6 6 7 6 5 4 3 2 2 2 1 1 2 3 3 2 2 2 2 1 1 1 1 1 1 0 1 0 0 2 2 2 1 1 1 2 2 3 3 4 3 3 3
7 7 7 7 6 6 4 3 2 2 2 2 2 2 3 3 3 3 2 2 2 1 1 1 1 1 0 0 1 0 2 3 2 1 1 1 2 2 3 4 4 4 4
8 9 8 8 7 6 5 3 2 1 1 0 1 1 2 2 2 2 2 2 2 2 2 2 2 2 1 0 1 2 1 1 2 2 1 1 1 1 2 2 3 4 5
9 7 7 6 6 5 5 4 4 3 3 3 2 2 2 1 2 2 2 2 2 2 2 2 2 2 2 1 1 1 2 2 1 2 2 2 2 1 2 2 2 3 4
7 7 6 5 5 5 5 6 4 3 3 1 1 1 1 1 1 1 2 2 2 2 3 2 2 2 2 2 2 1 1 1 2 2 2 3 2 2 1 2 2 2 3
5 5 5 5 5 5 5 5 5 5 4 2 2 1 1 1 1 1 1 1 2 2 2 2 2 2 2 2 2 1 2 2 2 2 3 3 2 2 2 2 2 2 2
Wind_Direction
121 124 114 107 108 107 107 107 109 109 111 115 121 122 122 123 123 122 120 115 113 112 109 105 105 106 105 104 104 104 104 108 115 118 117 117 120 121 119 115 115 119 121
135 126 118 111 110 108 107 107 110 114 113 115 119 122 124 126 125 124 122 120 116 114 112 110 108 106 104 104 105 104 105 109 116 120 118 116 119 123 127 126 127 129 127
119 116 121 115 112 111 109 109 109 115 114 117 121 124 126 126 127 127 125 121 117 114 112 110 109 107 105 103 103 102 102 105 111 113 105 96 114 129 132 135 137 134 132
121 112 121 121 118 116 113 111 112 114 115 118 121 124 126 127 129 129 128 124 120 118 116 113 110 109 106 103 101 102 103 105 111 108 96 105 120 136 138 140 138 138 138
112 109 132 127 124 121 118 116 115 115 116 119 122 125 128 129 130 132 130 126 125 124 122 117 113 112 110 107 108 111 113 109 108 101 101 106 115 144 144 143 141 141 143
118 118 138 131 128 126 123 121 119 117 117 119 123 127 130 132 135 138 136 131 129 127 127 122 120 121 118 116 117 119 122 119 107 110 114 124 141 158 153 150 149 150 150
125 120 140 137 134 130 127 125 125 123 122 121 125 130 133 135 139 140 140 142 140 138 136 134 134 129 126 123 128 132 131 128 118 125 133 151 174 174 165 161 158 159 158
129 123 135 144 140 136 134 133 132 131 131 132 132 135 139 142 144 147 153 156 158 160 161 159 163 157 147 141 142 153 158 154 133 144 159 176 190 182 176 175 169 167 166
119 118 115 130 139 144 142 142 141 138 139 138 137 142 150 156 158 158 163 170 177 184 194 196 199 193 197 226 255 211 187 170 144 168 186 193 202 193 184 181 179 177 175
112 113 118 103 91 99 131 153 152 149 144 141 142 146 151 157 166 171 176 191 198 204 226 237 240 231 250 256 256 253 216 166 158 185 194 208 211 204 196 192 189 187 184
156 142 133 126 110 97 129 182 164 159 153 146 146 155 122 65 50 101 206 214 221 221 235 247 254 262 275 272 267 254 242 174 195 213 208 215 215 212 204 199 195 194 192
188 191 179 172 168 159 191 128 83 109 103 88 58 57 59 62 25 23 295 252 251 259 266 275 294 304 324 310 289 281 218 212 212 218 220 220 219 215 208 204 201 198 198
190 192 189 187 182 178 186 161 106 57 72 70 75 98 94 64 12 11 356 345 353 6 7 356 345 333 289 271 286 268 234 229 223 227 230 226 221 219 215 212 207 204 206
185 198 195 185 183 195 193 179 156 135 127 205 267 233 127 101 321 329 335 325 347 344 349 343 330 306 283 271 262 255 241 233 230 227 236 230 223 221 220 216 212 211 212
190 198 198 189 188 192 189 190 175 191 201 222 246 249 195 194 251 293 304 311 319 330 317 301 279 280 283 290 271 243 235 228 231 231 241 237 226 224 222 219 216 216 218
195 198 193 191 192 188 195 193 195 201 202 212 233 233 214 210 223 229 275 311 302 288 271 267 270 272 284 282 283 268 249 234 228 228 233 244 235 226 223 221 217 217 217
193 192 192 194 190 191 198 200 199 208 199 215 235 241 219 210 215 220 242 266 272 269 262 271 294 309 292 291 292 282 259 240 234 229 228 230 234 231 225 226 222 218 220
185 186 196 199 187 191 192 190 192 195 195 217 226 233 225 218 213 202 212 251 256 251 247 250 273 298 293 295 297 297 285 253 247 237 225 224 224 230 230 228 223 223 226
187 185 189 196 184 185 186 182 183 180 200 215 216 231 235 229 215 195 205 233 230 229 239 240 222 218 266 291 286 283 282 263 257 250 234 231 227 228 230 237 236 232 233
185 183 185 190 184 171 163 154 153 185 235 233 224 232 239 238 227 204 217 234 209 200 227 223 238 245 244 263 298 311 302 283 263 258 246 234 227 228 225 227 232 238 238
180 181 185 187 184 166 158 167 174 212 220 231 233 232 240 239 227 210 228 218 190 199 224 225 206 258 304 271 30 335 330 329 313 266 247 236 234 231 224 219 216 223 235
186 188 188 192 187 183 177 167 170 183 209 217 233 241 242 237 225 214 204 207 194 197 217 210 178 178 275 130 141 61 345 347 346 340 305 249 249 228 228 230 222 220 230
194 197 196 196 193 191 176 144 127 96 21 291 249 242 243 234 228 224 210 199 201 194 214 222 198 189 215 247 168 162 164 254 305 324 319 309 288 258 251 243 232 227 229
203 198 193 190 191 189 173 170 174 188 216 227 228 242 257 243 236 224 217 207 207 207 220 233 212 202 198 228 213 201 196 188 204 307 318 311 299 279 277 271 258 241 234
190 187 184 179 187 185 179 180 181 205 219 221 212 239 265 292 264 234 220 214 211 213 218 220 215 209 210 219 209 195 188 192 200 203 283 308 318 294 284 272 267 257 247
172 169 170 174 190 188 181 182 185 196 195 188 215 223 251 268 279 272 225 228 220 214 220 218 210 203 215 219 211 197 186 190 198 194 230 264 284 286 284 269 260 261 260